Temp
70 70 70 72 74 77 78 79 78 78 74 73 72 73 73 73 73 72 71 73 71 71 72 74 75 75 74 75 75 75 74 73 74
66 70 70 70 71 73 79 78 78 78 75 74 73 73 73 73 73 73 74 74 74 71 73 75 77 76 76 76 75 75 74 74 74
64 67 71 71 71 71 71 72 74 74 75 73 72 73 75 75 73 73 73 73 74 74 74 75 74 75 76 76 76 75 74 74 73
63 64 66 67 68 69 69 70 70 69 69 70 70 71 71 71 74 74 73 74 75 72 73 73 73 74 74 74 75 75 74 73 74
63 63 64 66 67 68 68 69 69 69 69 70 70 70 71 71 73 73 74 74 74 74 73 73 73 73 72 73 74 74 74 74 76
62 63 62 62 63 64 66 67 69 69 69 69 70 70 70 70 70 72 73 74 75 74 74 73 73 73 72 72 73 74 74 74 75
63 62 61 62 61 62 63 64 65 66 68 70 70 69 69 69 69 70 69 71 72 73 74 74 74 73 73 73 74 75 75 75 74
62 63 64 61 60 61 62 61 63 65 66 66 68 69 69 68 69 70 68 69 70 71 73 74 75 75 74 74 75 79 75 75 74
63 64 65 66 65 65 64 63 63 65 65 65 66 66 67 68 67 68 68 69 69 69 69 72 74 75 74 74 79 72 71 74 74
64 65 64 63 63 64 66 66 67 66 66 67 65 64 65 65 65 65 65 66 66 67 67 68 69 71 73 73 74 68 67 69 72
63 63 62 61 61 62 64 62 62 63 66 66 66 65 65 65 65 65 65 65 65 65 66 67 68 68 70 70 73 67 65 66 70
61 59 59 59 60 60 60 60 61 61 60 61 61 61 63 65 65 64 65 65 65 65 65 65 66 68 68 69 70 63 62 64 71
62 61 60 59 59 59 58 57 60 58 57 57 56 58 60 61 62 62 63 63 63 64 64 65 66 67 67 66 69 60 59 62 69
61 61 59 58 57 55 53 54 56 53 53 52 54 57 58 59 59 61 62 61 61 62 63 64 63 65 67 68 66 63 57 58 67
57 57 56 56 54 53 52 53 53 50 49 52 53 54 55 55 57 59 61 58 60 60 60 60 61 62 65 67 66 59 56 56 58
55 55 54 54 52 50 50 51 51 48 48 51 51 51 51 52 54 56 57 55 56 59 59 58 58 59 60 61 63 63 56 57 59
53 53 52 51 50 49 48 49 49 48 49 50 49 48 48 50 50 51 52 56 57 57 57 57 58 58 58 59 59 60 58 60 57
51 50 50 50 48 47 46 47 47 48 48 48 47 47 47 46 48 47 49 52 52 54 54 50 52 54 53 54 57 62 53 51 58
51 49 48 47 46 46 46 47 47 47 47 47 45 45 45 45 45 46 48 48 51 51 51 50 47 46 47 55 52 48 46 45 44
52 49 48 47 46 46 46 46 46 47 48 48 46 44 44 44 45 45 45 47 45 47 51 51 49 47 48 47 46 45 45 44 42
MSLP
1013.75 1013.84 1014.15 1014.67 1014.83 1014.81 1015.22 1015.69 1016.45 1017.04 1017.61 1018.23 1018.72 1019.15 1019.54 1019.90 1020.13 1020.16 1020.23 1020.45 1020.71 1020.83 1020.90 1020.96 1020.79 1020.98 1021.23 1021.18 1021.30 1021.49 1021.53 1021.68 1021.81
1014.68 1014.58 1014.25 1014.70 1014.81 1015.09 1015.26 1015.62 1016.15 1016.58 1017.21 1017.79 1018.33 1018.76 1019.18 1019.44 1019.76 1019.90 1019.94 1020.24 1020.33 1020.46 1020.47 1020.38 1020.18 1020.65 1020.89 1021.03 1021.16 1021.27 1021.46 1021.74 1021.70
1015.41 1015.21 1014.70 1014.51 1015.01 1015.10 1015.58 1016.14 1016.75 1017.12 1017.24 1017.96 1018.44 1018.80 1018.94 1019.05 1019.29 1019.60 1019.61 1020.03 1020.18 1020.17 1020.10 1019.92 1020.08 1020.36 1020.48 1020.75 1020.99 1021.14 1021.23 1021.55 1021.65
1016.11 1016.01 1015.80 1015.88 1015.85 1015.98 1016.28 1016.84 1017.26 1017.79 1018.12 1018.20 1018.58 1018.92 1019.25 1019.17 1019.13 1019.21 1019.45 1019.59 1019.83 1020.09 1019.82 1019.93 1020.27 1020.34 1020.58 1020.73 1020.96 1021.03 1021.43 1021.46 1021.55
1016.73 1016.69 1016.69 1016.71 1016.60 1016.89 1016.78 1017.17 1018.02 1017.54 1018.71 1018.64 1018.74 1018.94 1019.22 1019.31 1019.09 1019.15 1019.30 1019.28 1019.44 1019.57 1019.84 1019.81 1020.00 1020.40 1020.75 1020.72 1020.84 1021.08 1021.28 1021.40 1021.41
1017.04 1017.07 1017.45 1017.65 1017.66 1017.47 1017.15 1016.54 1017.91 1018.50 1018.77 1019.01 1019.13 1019.17 1019.30 1019.56 1019.35 1019.11 1019.07 1019.16 1019.23 1019.68 1019.80 1019.94 1019.84 1020.11 1020.48 1020.54 1020.55 1020.70 1020.92 1021.22 1021.29
1017.80 1017.87 1018.28 1018.33 1018.48 1018.40 1018.29 1018.35 1018.44 1018.62 1018.51 1018.35 1019.06 1019.26 1019.64 1019.55 1019.81 1019.64 1019.45 1019.50 1019.45 1019.50 1019.73 1019.71 1019.78 1019.93 1020.08 1020.13 1020.29 1020.41 1020.59 1020.73 1020.89
1018.08 1018.19 1018.38 1018.84 1019.19 1019.27 1019.30 1019.67 1019.64 1019.49 1019.77 1019.54 1019.29 1019.51 1020.05 1019.65 1019.94 1019.92 1019.99 1020.04 1019.89 1019.54 1019.57 1019.51 1019.45 1019.48 1019.62 1019.78 1019.94 1020.06 1020.26 1020.49 1020.59
1018.19 1018.65 1018.75 1019.33 1019.57 1019.84 1019.99 1020.30 1020.35 1020.39 1020.43 1020.26 1020.32 1020.33 1020.02 1019.72 1019.65 1019.74 1020.13 1020.19 1020.61 1020.32 1019.75 1019.64 1019.37 1019.10 1019.16 1019.39 1019.56 1019.64 1019.77 1019.92 1020.08
1018.49 1019.17 1019.55 1019.89 1020.12 1020.09 1020.28 1020.38 1020.79 1020.74 1020.65 1020.74 1020.67 1020.60 1020.35 1020.13 1020.04 1020.62 1020.45 1020.81 1021.46 1021.10 1020.42 1019.92 1019.86 1019.41 1019.11 1019.26 1019.32 1019.49 1019.50 1019.48 1019.55
1018.95 1019.64 1020.02 1020.32 1020.47 1020.54 1020.75 1020.98 1021.23 1021.24 1021.15 1021.20 1021.14 1020.94 1020.91 1021.18 1021.15 1021.19 1020.97 1021.26 1021.84 1021.47 1020.64 1020.31 1020.20 1020.12 1019.64 1019.37 1019.25 1019.10 1019.22 1019.35 1019.38
1019.45 1020.16 1020.58 1021.19 1021.26 1021.46 1021.60 1021.72 1022.04 1022.18 1022.36 1022.37 1022.19 1022.12 1022.00 1021.96 1021.82 1021.63 1021.50 1021.59 1021.39 1021.12 1020.83 1020.42 1020.47 1020.27 1020.08 1019.85 1019.38 1019.11 1019.04 1019.33 1019.18
1019.86 1020.49 1021.10 1021.60 1021.96 1022.36 1022.69 1023.11 1022.95 1023.25 1023.80 1023.66 1023.62 1023.23 1022.83 1022.71 1022.57 1022.31 1022.09 1022.02 1021.86 1021.68 1021.39 1021.20 1020.73 1020.32 1019.98 1019.72 1019.34 1019.20 1019.09 1019.04 1019.14
1020.33 1021.05 1021.75 1022.35 1022.91 1023.48 1023.88 1023.90 1023.86 1024.37 1024.56 1024.72 1024.71 1024.11 1023.70 1023.59 1023.30 1022.92 1022.65 1022.57 1022.20 1022.04 1021.71 1021.23 1020.80 1020.21 1019.72 1019.62 1019.59 1019.71 1019.47 1019.12 1019.17
1021.30 1021.94 1022.66 1023.01 1023.57 1024.19 1024.63 1024.69 1024.73 1025.14 1025.38 1025.46 1025.04 1024.57 1024.35 1024.27 1023.89 1023.46 1023.06 1022.79 1022.48 1022.18 1021.89 1021.58 1021.32 1020.78 1020.42 1020.30 1020.17 1020.10 1019.85 1019.74 1019.60
1021.93 1022.43 1022.94 1023.39 1023.98 1024.69 1025.05 1025.12 1025.29 1025.77 1026.19 1025.86 1025.59 1025.35 1025.27 1024.96 1024.51 1024.17 1023.82 1023.45 1023.16 1022.82 1022.44 1022.31 1022.10 1021.65 1021.38 1021.04 1020.59 1020.42 1020.31 1020.23 1019.92
1022.47 1023.02 1023.51 1023.90 1024.40 1025.08 1025.64 1025.84 1025.90 1026.03 1026.00 1025.91 1025.97 1026.08 1025.93 1025.64 1025.32 1024.92 1024.45 1024.11 1023.84 1023.57 1023.47 1023.41 1023.14 1022.80 1022.40 1021.78 1021.23 1020.85 1020.56 1020.39 1020.09
1022.88 1023.45 1023.94 1024.33 1025.00 1025.56 1026.01 1026.12 1026.23 1026.22 1026.19 1026.08 1026.10 1025.96 1025.85 1025.77 1025.54 1025.33 1025.02 1024.70 1024.40 1024.09 1024.06 1024.31 1024.09 1023.65 1023.25 1022.66 1022.20 1021.77 1021.50 1021.01 1020.39
1023.05 1023.77 1024.21 1024.80 1025.35 1025.78 1026.11 1026.16 1026.22 1026.13 1026.13 1026.20 1026.40 1026.46 1026.28 1026.07 1025.79 1025.46 1025.17 1024.96 1024.37 1024.14 1024.10 1023.84 1023.77 1023.62 1023.51 1022.80 1022.33 1022.19 1021.43 1020.80 1020.23
1023.06 1023.65 1024.15 1024.77 1025.35 1025.72 1026.02 1026.23 1026.35 1026.10 1026.01 1025.99 1026.10 1026.29 1026.23 1026.12 1025.96 1025.88 1025.67 1025.34 1024.93 1024.29 1023.52 1023.48 1023.30 1023.05 1022.75 1022.53 1022.53 1021.96 1021.68 1021.10 1020.43
Wind_Speed
4 6 3 1 7 16 18 16 14 14 12 10 8 8 8 7 7 5 4 5 4 4 4 4 6 6 6 5 4 4 3 2 2
3 4 6 7 6 5 12 15 16 16 14 12 10 9 8 7 6 6 5 6 5 4 5 5 6 7 7 6 6 5 4 3 3
6 6 1 7 6 8 7 8 5 5 4 5 2 4 7 8 8 7 6 5 6 6 6 5 5 7 7 6 5 5 5 3 3
7 8 8 5 7 9 11 12 12 9 6 6 7 4 2 4 7 7 6 6 6 6 5 6 6 6 6 6 6 6 5 5 5
7 9 8 6 9 5 7 9 8 7 5 6 7 5 5 5 5 5 6 6 6 6 7 6 6 6 6 6 6 5 6 6 5
5 9 9 8 9 8 7 8 7 8 5 3 4 5 7 7 5 4 6 6 6 6 6 7 6 6 7 7 7 6 6 6 6
9 10 7 8 8 8 8 8 7 6 2 3 4 3 2 6 8 7 5 4 4 4 7 7 7 7 7 7 6 6 6 6 6
9 10 11 9 9 8 9 6 5 5 3 2 3 5 3 5 3 5 5 8 8 5 4 6 7 7 7 7 7 6 7 6 7
11 10 10 9 9 9 9 8 7 6 6 5 5 5 5 5 5 8 7 9 9 8 6 6 5 7 6 5 5 9 10 7 6
14 12 12 11 8 7 7 8 6 8 7 7 8 8 9 9 8 6 7 8 7 7 6 4 5 5 1 4 5 8 8 8 5
13 11 9 8 7 8 8 6 6 7 8 9 9 9 9 6 5 6 6 3 2 5 4 6 6 7 5 4 4 6 8 8 6
11 8 6 6 7 7 9 10 8 9 10 9 10 10 9 7 6 5 2 4 5 4 6 5 6 6 7 6 5 7 8 8 4
11 10 8 8 8 10 11 8 10 11 9 10 9 7 7 7 7 7 6 6 6 4 3 4 4 6 5 7 6 10 10 5 4
11 11 12 12 12 10 7 7 10 11 9 10 6 8 7 7 6 6 5 5 3 4 5 6 6 6 5 4 6 6 8 10 5
11 13 13 12 12 9 6 7 10 8 9 6 6 7 8 9 9 8 8 7 6 7 6 5 6 6 5 3 3 2 5 7 5
11 11 9 7 10 8 6 7 7 8 3 5 6 7 7 7 7 8 8 7 9 8 9 7 6 5 5 5 4 3 3 2 6
11 9 9 7 8 8 6 6 7 5 5 5 6 5 5 5 5 7 6 5 5 5 6 8 8 8 9 8 6 6 5 4 4
9 7 6 7 7 6 6 5 5 4 4 6 6 6 5 5 4 5 5 5 4 5 5 2 5 4 4 5 8 10 10 8 7
9 9 7 7 7 7 4 4 5 4 4 4 4 4 4 4 4 5 4 4 6 3 6 11 6 4 3 6 6 10 16 18 15
10 8 8 8 8 7 6 5 4 2 3 4 6 5 5 3 4 3 4 4 4 8 7 6 10 12 13 9 8 12 14 15 13
Wind_Direction
101 117 123 233 192 173 176 175 170 173 176 180 169 168 171 177 198 176 189 174 183 187 193 206 186 183 197 200 207 216 218 230 248
233 229 161 215 135 161 182 174 175 177 178 183 177 180 169 182 186 184 198 193 201 184 225 218 186 188 180 197 210 212 208 214 260
57 12 226 130 125 116 101 99 105 71 150 155 158 183 190 182 190 197 207 178 232 213 203 221 185 179 180 191 211 216 201 222 249
61 57 54 73 91 101 101 93 84 68 76 95 90 80 59 241 207 197 200 195 218 202 195 193 191 184 187 193 197 222 224 219 236
66 60 55 66 75 84 102 90 89 86 61 74 71 96 80 351 257 208 209 223 190 194 198 202 187 193 207 209 206 217 216 224 231
81 67 55 56 56 58 57 100 134 134 161 163 114 57 65 42 12 269 229 227 213 172 210 204 194 183 209 222 220 213 212 218 229
107 95 83 83 77 71 59 63 67 73 33 168 194 116 55 77 24 12 20 41 0 235 198 209 199 200 210 212 220 217 222 215 227
109 105 96 87 92 87 86 76 73 69 68 70 114 122 115 81 66 59 26 14 351 335 256 222 215 202 205 213 214 218 209 216 220
120 114 103 97 87 86 88 98 94 94 79 60 83 96 88 111 90 51 53 24 344 338 6 346 249 230 219 229 235 223 219 213 223
104 100 99 94 82 82 77 75 84 85 85 85 80 76 58 44 58 53 48 38 337 332 351 343 341 323 289 264 259 262 250 243 229
113 110 99 87 78 65 49 61 61 45 44 51 50 54 57 42 45 57 50 48 312 341 354 351 347 318 328 339 303 301 275 244 242
117 112 109 100 86 82 60 54 65 60 42 41 42 39 39 30 27 13 22 22 357 352 349 359 336 321 323 314 307 311 324 314 261
109 99 97 90 71 64 61 40 64 64 46 37 21 15 23 14 14 21 21 360 338 302 320 297 305 300 287 294 312 22 341 305 266
115 110 105 88 76 72 58 51 67 56 45 31 353 15 15 5 358 351 352 332 329 320 319 320 315 301 317 12 33 30 22 27 29
106 104 98 98 91 80 65 66 75 62 46 354 9 14 16 6 2 359 354 348 337 333 337 338 336 354 359 7 49 60 51 63 60
107 104 99 98 100 90 65 68 77 76 34 37 26 28 15 6 5 7 4 5 3 5 7 8 352 359 345 320 326 316 254 357 357
106 100 100 100 93 91 77 75 74 80 45 39 43 43 29 10 18 357 353 359 4 8 11 10 10 8 360 341 332 327 325 312 327
119 114 106 100 104 97 100 92 89 84 71 54 30 20 11 11 10 3 355 4 356 1 14 46 349 349 330 343 347 338 320 309 311
126 124 119 106 111 113 117 90 82 52 54 70 57 18 353 347 354 351 356 346 336 1 336 336 338 308 233 341 283 324 344 341 327
140 130 130 134 139 134 121 95 97 41 19 23 11 2 355 12 12 358 355 351 342 335 338 341 337 339 340 340 316 348 352 352 343